User: anonymous   Login
Location: Unspecified
(0.0000°N, 0.0000°E)
Time: 04:46:51
(UTC+00:00)
Language:

EGRS 7 - Orbit

View from above orbital plane
View from above orbital plane
View from above satellite
View from above satellite

Ground track
Ground track

The orbit data is extracted from the following two-line orbital elements,

1  2411U 66077B   18017.03175414 +.00000006 +00000-0 +23925-2 0  9995
2  2411 090.1970 246.6453 0025292 259.0937 100.7068 08.59618359613401
Epoch (UTC): 17 January 2018 00:45:43
Eccentricity: 0.0025292
inclination: 90.1970°
perigee height: 3662 km
apogee height: 3713 km
right ascension of ascending node: 246.6453°
argument of perigee: 259.0937°
revolutions per day: 8.59618359
mean anomaly at epoch: 100.7068°
orbit number at epoch: 61340

The dashed part of the orbit path shows where the satellite is in the earth's shadow,  

DLR